| time (UTC) | temp C | wind direction | speed KPH | gust KPH | rain 1hr cm | rain 24hr cm | rain mn cm | humidity % | barometer mb |
| 20260504194548 | 13 | 300 | 6.4 | 20.9 | 0.00 | 0.25 | 0.25 | 68 | 1006.4 |
| 20260504193045 | 13 | 276 | 9.7 | 17.7 | 0.00 | 0.25 | 0.25 | 69 | 1006.7 |
| 20260504191543 | 12 | 314 | 14.5 | 22.5 | 0.00 | 0.25 | 0.25 | 74 | 1006.9 |
| 20260504190039 | 12 | 302 | 8.0 | 17.7 | 0.00 | 0.25 | 0.25 | 75 | 1007.1 |
| 20260504184538 | 11 | 323 | 6.4 | 16.1 | 0.00 | 0.25 | 0.25 | 83 | 1007.3 |
| 20260504183038 | 11 | 5 | 1.6 | 8.0 | 0.00 | 0.25 | 0.25 | 81 | 1007.3 |
| 20260504181538 | 11 | 340 | 4.8 | 9.7 | 0.00 | 0.25 | 0.25 | 81 | 1007.3 |
| 20260504180037 | 9 | 350 | 4.8 | 8.0 | 0.00 | 0.25 | 0.25 | 88 | 1007.5 |
| 20260504174538 | 8 | 355 | 0.0 | 3.2 | 0.00 | 0.25 | 0.25 | 91 | 1007.7 |
| 20260504173039 | 7 | 59 | 0.0 | 1.6 | 0.00 | 0.25 | 0.25 | 94 | 1007.8 |
| 20260504171537 | 7 | 59 | 0.0 | 4.8 | 0.03 | 0.25 | 0.25 | 94 | 1007.8 |
| 20260504081535 | 0 | 184 | 1.6 | 4.8 | 0.00 | 0.20 | 0.00 | 90 | 1008.0 |
| 20260504050013 | -2 | 139 | 1.6 | 8.0 | 0.00 | 0.33 | 0.00 | 91 | 1008.3 |
| 20260504044514 | -2 | 119 | 3.2 | 6.4 | 0.00 | 0.46 | 0.00 | 91 | 1008.2 |
| 20260504043012 | -1 | 134 | 0.0 | 4.8 | 0.00 | 0.46 | 0.00 | 91 | 1008.3 |
| 20260504041520 | -1 | 134 | 0.0 | 4.8 | 0.00 | 0.46 | 0.00 | 90 | 1008.3 |
| 20260504040003 | -1 | 140 | 3.2 | 6.4 | 0.00 | 0.53 | 0.46 | 90 | 1008.0 |
| 20260504034625 | -1 | 123 | 1.6 | 4.8 | 0.00 | 0.53 | 0.46 | 90 | 1007.9 |
| 20260504033059 | -1 | 113 | 0.0 | 4.8 | 0.00 | 0.53 | 0.46 | 89 | 1007.9 |
| 20260504031556 | -1 | 104 | 0.0 | 3.2 | 0.00 | 0.53 | 0.46 | 89 | 1008.0 |
| 20260504030054 | -1 | 104 | 1.6 | 6.4 | 0.00 | 0.53 | 0.46 | 88 | 1008.0 |
| 20260504024554 | 0 | 100 | 3.2 | 6.4 | 0.00 | 0.56 | 0.46 | 87 | 1008.0 |
| 20260504023050 | 0 | 100 | 0.0 | 4.8 | 0.00 | 0.56 | 0.46 | 86 | 1008.0 |
| 20260504021552 | 0 | 100 | 1.6 | 6.4 | 0.00 | 0.56 | 0.46 | 85 | 1008.1 |
| 20260504020045 | 1 | 342 | 1.6 | 14.5 | 0.00 | 0.56 | 0.46 | 82 | 1008.1 |
| 20260504014544 | 0 | 220 | 1.6 | 6.4 | 0.00 | 0.58 | 0.46 | 84 | 1007.9 |
| 20260504013055 | 1 | 165 | 0.0 | 3.2 | 0.00 | 0.58 | 0.46 | 81 | 1007.9 |
| 20260504011542 | 2 | 202 | 3.2 | 6.4 | 0.00 | 0.58 | 0.46 | 77 | 1008.0 |
| 20260504010043 | 2 | 267 | 1.6 | 4.8 | 0.00 | 0.58 | 0.46 | 73 | 1008.0 |
| 20260504004540 | 3 | 274 | 3.2 | 8.0 | 0.00 | 0.58 | 0.46 | 68 | 1007.8 |
| 20260504003039 | 4 | 265 | 4.8 | 14.5 | 0.00 | 0.58 | 0.46 | 66 | 1007.8 |
| 20260504001543 | 4 | 232 | 4.8 | 17.7 | 0.00 | 0.58 | 0.46 | 65 | 1007.5 |
| 20260504000040 | 5 | 281 | 4.8 | 20.9 | 0.00 | 0.58 | 0.46 | 64 | 1007.3 |
| 20260503234538 | 5 | 257 | 8.0 | 16.1 | 0.00 | 0.58 | 0.46 | 64 | 1007.4 |
| 20260503233038 | 5 | 289 | 8.0 | 14.5 | 0.00 | 0.58 | 0.46 | 67 | 1007.3 |
| 20260503231538 | 5 | 321 | 6.4 | 14.5 | 0.00 | 0.58 | 0.46 | 67 | 1007.6 |
| 20260503230041 | 5 | 311 | 4.8 | 16.1 | 0.00 | 0.58 | 0.46 | 67 | 1007.3 |
| 20260503224536 | 5 | 324 | 11.3 | 17.7 | 0.00 | 0.58 | 0.46 | 67 | 1007.5 |
| 20260503223035 | 5 | 338 | 3.2 | 12.9 | 0.00 | 0.58 | 0.46 | 69 | 1007.3 |
| 20260503221535 | 5 | 321 | 6.4 | 16.1 | 0.00 | 0.58 | 0.46 | 67 | 1007.2 |
| 20260503220037 | 5 | 341 | 8.0 | 17.7 | 0.00 | 0.58 | 0.46 | 66 | 1007.0 |
| 20260503214540 | 5 | 342 | 9.7 | 20.9 | 0.00 | 0.58 | 0.46 | 65 | 1007.1 |
| 20260503213037 | 5 | 294 | 14.5 | 29.0 | 0.00 | 0.58 | 0.46 | 63 | 1007.0 |
| 20260503211533 | 5 | 329 | 8.0 | 25.7 | 0.00 | 0.58 | 0.46 | 61 | 1007.1 |
| 20260503210033 | 5 | 329 | 14.5 | 27.4 | 0.00 | 0.58 | 0.46 | 61 | 1006.9 |
| 20260503204532 | 5 | 266 | 12.9 | 25.7 | 0.00 | 0.66 | 0.46 | 65 | 1007.0 |
| 20260503203036 | 5 | 306 | 16.1 | 33.8 | 0.00 | 0.66 | 0.46 | 66 | 1006.8 |
| 20260503201530 | 5 | 322 | 6.4 | 24.1 | 0.00 | 0.66 | 0.46 | 63 | 1006.8 |
| 20260503200030 | 6 | 239 | 12.9 | 24.1 | 0.00 | 0.66 | 0.46 | 62 | 1006.8 |